Miscellaneous Local Product
Issued by NWS Hastings, NE

Home | Current Version | Previous Version | Text Only | Print | Product List | Glossary Off
Versions: 1 2 3 4 5 6 7 8 9 10 11 12 13 14 15 16 17 18 19 20 21 22 23 24 25 26 27 28 29 30 31 32 33 34 35 36 37 38 39 40 41 42 43 44 45 46 47 48 49 50

000
AXUS43 KGID 252102
MISGRI

GID CWA HOURLY WEATHER ROUNDUP
NATIONAL WEATHER SERVICE HASTINGS NE
300 PM CST SAT FEB 25 2017

NOTE: "FAIR" INDICATES FEW OR NO CLOUDS BELOW 12,000 FEET WITH NO
SIGNIFICANT WEATHER AND/OR OBSTRUCTIONS TO VISIBILITY.

...SOUTH CENTRAL NEBRASKA...

CITY           SKY/WX    TMP DP  RH WIND       PRES   REMARKS
GRAND ISLAND   SUNNY     34  26  72 SW16      29.94F WCI  24
HASTINGS       MOSUNNY   36  23  59 S13       29.95F WCI  27
KEARNEY        PTSUNNY   39  23  52 W18       29.92F WCI  30
ORD            SUNNY     33  18  53 W16       29.89F WCI  23
YORK           SUNNY     32  23  69 S15       29.98F WCI  22
AURORA         SUNNY     34  24  68 S14       29.96F WCI  24
LEXINGTON      SUNNY     37  21  53 W15       29.91F WCI  27
HOLDREGE       MOSUNNY   41  21  44 W17G23    29.91F
HEBRON         SUNNY     38  22  52 SW13      30.01F WCI  30

...NEBRASKA PANHANDLE...

CITY           SKY/WX    TMP DP  RH WIND       PRES   REMARKS
CHADRON        MOSUNNY   29  16  58 W14       29.85F WCI  18
ALLIANCE       CLOUDY    23  14  68 W16       29.84F WCI  10
SCOTTSBLUFF    CLOUDY    28  14  55 NW12      29.85F WCI  18
SIDNEY         CLOUDY    28  13  53 NW20      29.86F WCI  15

...WESTERN AND NORTH CENTRAL NEBRASKA...

CITY           SKY/WX    TMP DP  RH WIND       PRES   REMARKS
VALENTINE      SUNNY     27  17  66 W10       29.85F WCI  17
AINSWORTH      SUNNY     30  20  67 W12       29.85S WCI  20
ONEILL         SUNNY     31  21  66 SW12      29.88F WCI  21
BROKEN BOW     SUNNY     32  20  61 W8        29.88F WCI  25
IMPERIAL       SUNNY     35  14  42 N16       29.90F WCI  25
NORTH PLATTE   SUNNY     34  21  59 W14       29.91F WCI  25
MCCOOK         SUNNY     40  20  44 NW15      29.93F WCI  32

...EASTERN NEBRASKA...

CITY           SKY/WX    TMP DP  RH WIND       PRES   REMARKS
NORFOLK        SUNNY     29  17  61 S22       29.93F WCI  15
SO SIOUX CITY  SUNNY     30  15  53 S13       29.99F WCI  20
TEKAMAH        SUNNY     29  17  61 S17       30.03F WCI  17
COLUMBUS       SUNNY     30  18  59 S17       29.98F WCI  18
ALBION         SUNNY     34  20  58 SW18      29.93F WCI  23
OMAHA EPPLEY   PTSUNNY   32  14  47 S15       30.04F WCI  22
OFFUTT AFB     MOSUNNY   32  14  46 SW15      30.05F WCI  22
MILLARD        SUNNY     33  16  49 S8        30.04F WCI  26
LINCOLN        SUNNY     33  18  53 SW10      30.04F WCI  25
NEBRASKA CITY  SUNNY     33  15  47 SW10      30.06F WCI  25
BEATRICE       SUNNY     38  20  47 SW14      30.03F WCI  30
FALLS CITY     SUNNY     37  16  42 SW8       30.08F WCI  31

...NORTHERN KANSAS...

CITY           SKY/WX    TMP DP  RH WIND       PRES   REMARKS
GOODLAND       SUNNY     40   7  25 NW10G23   29.91F WCI  33
HILL CITY      PTSUNNY   48  18  30 W13G21    29.94F
PHILLIPSBURG   MOSUNNY   46  18  31 SW17      29.95F
SMITH CENTER   MOSUNNY   45  25  45 SW10G20   29.97F
HAYS           MOSUNNY   46  18  32 SW20G25   29.98F
RUSSELL        MOSUNNY   45  19  35 SW12G21   29.98F
CONCORDIA      MOSUNNY   43  14  31 SW17      30.01F
SALINA         SUNNY     47   9  21 S14G23    30.05F
TOPEKA         SUNNY     42  10  27 S5        30.10F



USA.gov is the U.S. government's official web portal to all federal, state and local government web resources and services.